Other Public Products
Issued by NWS Charleston, SC

Current Version | Previous Version | Graphics & Text | Print | Product List | Glossary Off
Versions: 1 2 3 4 5 6 7 8 9 10 11 12 13 14 15 16 17 18 19 20 21 22 23 24 25 26 27 28 29 30 31 32 33 34 35 36 37 38 39 40 41 42 43 44 45 46 47 48 49 50

000
FPUS82 KCHS 261727
OPUCHS

TEST...KCHS/KSAV Gateway Observations...TEST
National Weather Service Charleston SC
100 PM EDT THU APR 26 2018

NOTE: "fair" indicates few or no clouds below 12,000 feet with no
significant weather and/or obstructions to visibility.

SCZ050-WAZ558-NCZ071-TXZ119-213-PAZ071-DCZ001-FLZ074-172-MI076-
NYZ176-178-MAZ016-IL014-TNZ027-NJZ106-GAZ044-MD014-261800-

...Gateway Observations for Charleston International...

CITY           SKY/WX    TMP DP  RH WIND       PRES   REMARKS
Chas Airport   PTSUNNY   76  56  49 SW8G20    29.86F
Seattle        SUNNY     67  46  47 W3        30.03S
Charlotte      PTSUNNY   68  49  50 CALM      29.89F
Dallas DFW     MOSUNNY   63  44  50 NW6       30.03F
Dallas Love    MOSUNNY   64  45  49 N8        30.04F
Philladelphia  FAIR      62  41  46 W16G22    29.81S
Wash National  FAIR      65  38  36 NW14G23   29.87F
Baltimore      FAIR      64  41  42 NW14G21   29.85F
Miami          PTSUNNY   80  62  54 W8        29.97F
Detroit        FAIR      55  36  48 VRB3      29.94S
Newark         FAIR      65  41  41 NW14      29.74S
Laguardia      FAIR      63  39  41 W13       29.73S
J F K          FAIR      64  41  42 W16       29.74S
Boston Logan   FAIR      66  52  60 W13       29.59S
Ft. Lauderdale FAIR      81  63  54 S7        29.96F
Chicago O`Hare PTSUNNY   58  26  29 SW5       29.94F
Chicago Midway PTSUNNY   58  27  30 E5        29.96F
Houston Bush   FAIR      69  48  47 VRB6      30.03F
Houston Hobby  FAIR      68  46  45 N9        30.02F
Nashville      PTSUNNY   59  54  83 SE6       29.89S
Atlanta        LGT RAIN  60  53  77 NW6       29.88F

$$

GAZ044-118-TXZ119-213-NCZ071-DCZ001-MDZ014-506-PAZ021-071-NJZ106-
NYZ176-178-MAZ106-OHZ011-021-055-MIZ076-KYZ091-ILZ014-INZ047-
MNZ060-ONZ431-261800-

...Gateway Observations for Savannah International...

CITY           SKY/WX    TMP DP  RH WIND       PRES   REMARKS
Savannah Arpt  PTSUNNY   77  55  46 SW7       29.87F
Atlanta        LGT RAIN  60  53  77 NW6       29.88F
Charlotte      PTSUNNY   68  49  50 CALM      29.89F
Dallas DFW     MOSUNNY   63  44  50 NW6       30.03F
Houston Bush   FAIR      69  48  47 VRB6      30.03F
Wash National  FAIR      65  38  36 NW14G23   29.87F
Wash Dulles    FAIR      63  38  39 NW14G23   29.87F
Baltimore      FAIR      64  41  42 NW14G21   29.85F
Philadelphia   FAIR      62  41  46 W16G22    29.81S
Newark         FAIR      65  41  41 NW14      29.74S
Laguardia      FAIR      63  39  41 W13       29.73S
J F K          FAIR      64  41  42 W16       29.74S
Boston         FAIR      66  52  60 W13       29.59S
Pittsburg      FAIR      53  36  52 W8        29.94S
Akron          FAIR      54  36  50 W7        29.95S
Cleveland      FAIR      53  36  52 VRB6      29.98S
Cincinnati     FAIR      63  39  41 CALM      29.90F
Columbus       CLOUDY    59  46  61 CALM      29.92F
Detroit        FAIR      55  36  48 VRB3      29.94S
Chicago O`Hare PTSUNNY   58  26  29 SW5       29.94F
Minneapolis    PTSUNNY   59  35  40 NW13G23   29.87R
Indianapolis   FAIR      58  31  35 NE8       29.93F
Toronto Canada MOSUNNY   54  36  50 NW8G17    29.84F

$$




USA.gov is the U.S. government's official web portal to all federal, state and local government web resources and services.